Wind_Speed
15 16 18 19 19 18 18 16 17 17 16 14 14 12 11 12 11 11 14 12 11 10 10 11 11 11 13 13 13 13 13 14 16 17 17 17 18 19 21 22 24 25 27 29 30
16 16 17 18 18 19 17 15 16 17 15 15 13 12 12 13 12 12 15 14 12 11 11 11 12 11 14 14 13 13 14 16 16 17 18 18 19 21 23 25 26 28 28 31 31
17 17 17 17 19 19 17 16 15 16 15 15 13 13 14 14 14 14 16 16 13 13 12 11 12 13 13 14 13 14 15 17 16 17 18 19 20 21 24 26 27 28 30 32 33
19 18 18 19 21 19 18 17 16 16 15 15 14 14 15 15 15 16 17 17 15 15 15 14 14 14 14 15 15 15 16 17 16 17 19 19 20 21 25 27 29 30 31 33 35
20 19 19 20 22 23 21 21 20 18 17 16 16 16 16 16 17 18 19 19 17 18 17 17 17 18 17 16 16 16 17 18 17 17 18 20 20 23 25 27 29 31 32 34 37
20 20 21 22 23 24 25 24 22 20 18 18 16 17 17 17 18 19 20 20 19 20 19 19 20 20 19 18 16 17 17 18 18 19 19 19 22 22 25 29 31 33 35 38 41
23 24 23 24 23 24 25 26 26 23 22 23 22 21 20 19 18 18 20 20 20 22 21 21 22 23 21 19 17 18 18 18 18 20 20 20 23 25 27 30 32 34 36 40 42
25 24 24 26 25 24 26 26 28 26 26 26 26 25 23 21 20 19 19 20 20 22 23 23 24 24 23 21 18 18 18 18 20 22 20 22 25 27 28 31 33 34 37 40 43
32 29 26 24 24 27 29 28 27 27 28 30 30 29 27 25 23 24 24 23 23 22 23 24 24 25 23 19 19 19 19 19 20 21 21 24 26 27 30 32 34 36 39 41 43
36 34 32 31 28 26 25 25 27 30 32 33 34 34 32 30 28 26 26 25 24 23 23 24 24 24 22 20 20 20 19 19 20 21 23 26 27 28 29 31 34 37 40 42 43
40 39 37 35 34 32 29 29 28 28 31 36 37 37 35 34 32 30 28 27 25 23 23 24 24 23 22 21 21 20 19 20 20 21 24 26 27 28 29 32 35 38 41 43 44
44 42 40 39 38 37 34 33 32 32 32 32 35 37 38 37 36 33 31 29 27 25 25 25 25 24 23 22 21 20 20 20 20 21 24 26 27 28 31 34 37 39 42 44 44
48 46 44 43 42 40 37 36 35 34 35 32 31 31 34 37 38 35 34 32 30 28 28 27 26 25 23 23 21 21 20 20 20 22 24 27 27 28 31 36 38 41 43 44 45
48 50 51 48 44 41 39 38 39 38 39 30 29 27 29 31 35 36 35 34 33 31 30 28 26 26 25 24 22 21 21 21 22 23 27 28 31 30 34 37 40 41 43 45 46
47 47 49 50 46 43 42 40 39 40 42 29 24 23 24 28 28 31 34 35 35 33 32 29 27 26 25 24 23 22 23 24 26 27 29 31 34 33 36 39 40 42 44 47 48
45 47 48 49 48 47 45 45 45 45 44 30 25 24 23 26 27 30 33 34 34 34 32 31 28 27 27 25 25 26 26 27 29 30 32 35 37 36 38 40 41 42 44 47 50
46 46 49 50 49 49 49 48 47 52 35 31 26 26 25 28 27 26 28 31 32 32 30 29 29 29 28 28 27 28 29 31 34 34 35 37 39 38 41 41 43 44 45 47 50
49 49 50 51 52 53 51 50 53 49 35 31 27 27 27 26 29 27 27 26 26 27 28 30 30 30 30 30 32 32 31 31 35 35 38 40 41 40 42 43 44 44 46 49 52
55 52 52 51 52 55 55 55 53 48 37 32 31 31 30 28 29 27 27 28 27 28 30 31 33 33 34 35 34 32 30 33 35 38 40 42 42 41 42 44 44 45 47 49 53
58 55 54 55 55 56 57 54 53 49 39 35 34 35 30 29 31 31 30 29 29 32 33 34 35 36 36 37 34 33 32 34 36 40 43 44 43 42 43 44 45 45 48 51 54
64 62 60 59 59 61 61 53 51 50 41 38 38 37 34 31 34 32 34 30 33 33 34 33 36 37 37 34 34 34 33 35 39 43 45 46 44 40 45 46 46 46 49 52 56
70 68 67 65 65 62 60 57 52 52 44 42 41 37 38 35 33 34 35 35 37 39 38 35 39 38 38 36 35 35 34 37 41 44 45 45 44 39 45 46 45 47 49 53 56
77 74 72 70 68 66 65 62 56 54 49 47 43 42 41 39 38 32 34 36 39 40 43 40 41 40 40 38 34 34 35 40 41 43 45 45 42 42 46 46 45 47 50 53 55
82 81 76 72 70 71 69 67 60 54 51 51 46 45 43 42 38 39 35 32 35 38 38 40 44 44 40 42 37 36 38 40 41 44 44 44 42 43 45 45 44 47 50 53 55
85 88 77 74 73 72 71 65 59 61 59 55 49 45 42 43 42 40 37 33 34 37 39 39 37 38 42 40 39 40 42 42 42 45 44 43 46 39 43 43 44 47 49 51 54
86 81 76 73 74 75 71 67 65 65 61 53 45 40 43 42 41 38 38 38 35 34 37 38 38 36 40 40 43 48 48 44 43 46 44 45 43 35 41 40 43 46 49 50 53
91 81 79 75 72 76 72 71 65 62 60 54 45 45 47 46 45 43 42 41 39 36 38 40 40 39 41 43 47 52 44 45 46 44 42 46 37 40 38 39 42 45 46 49 52
Wind_Direction
250 247 247 243 242 240 236 236 246 248 248 251 250 245 249 250 240 246 256 263 269 267 285 302 308 313 316 317 315 320 325 324 323 327 329 333 330 328 326 325 323 324 325 327 329
250 249 247 247 242 238 239 241 244 249 249 245 245 243 250 247 244 250 261 263 264 253 273 296 300 314 318 317 312 315 319 322 321 320 323 328 328 326 325 324 321 322 321 324 325
246 249 248 247 243 240 240 242 244 250 250 249 246 243 246 249 252 257 260 262 256 250 267 278 292 306 318 317 312 312 312 317 320 317 317 321 327 327 326 324 322 320 321 320 322
241 244 244 244 246 246 246 247 247 247 252 249 250 248 250 253 256 258 258 261 255 252 265 273 285 295 308 318 311 305 305 310 314 315 317 319 324 328 328 328 325 323 322 322 320
243 243 244 245 246 246 246 245 246 247 249 250 250 252 249 252 255 260 260 261 257 252 262 273 284 293 300 307 310 301 302 306 309 311 316 320 324 329 330 327 325 324 322 318 314
246 245 245 246 246 246 246 246 248 249 246 247 250 256 256 254 257 258 261 263 260 257 260 271 281 290 296 296 299 296 296 301 305 310 316 322 321 325 326 325 324 323 321 317 314
244 246 247 249 248 251 251 248 247 245 249 253 253 255 256 260 259 260 262 263 264 264 265 270 278 287 294 295 290 289 296 296 300 308 315 320 319 322 323 323 323 322 319 316 313
240 246 251 254 253 252 252 251 250 249 252 252 254 256 255 255 260 264 265 266 266 264 266 270 276 282 289 289 282 285 292 294 300 306 312 316 316 316 319 321 321 319 317 315 312
237 239 245 251 256 256 257 257 258 256 255 255 256 257 256 258 259 263 266 267 267 267 267 270 274 281 285 278 277 284 289 295 301 304 307 312 314 315 319 319 318 317 315 313 313
237 238 243 249 251 256 260 265 266 264 261 258 257 258 257 259 259 262 264 266 267 268 269 270 275 281 283 276 278 284 287 293 300 304 307 311 313 317 318 316 316 314 313 313 313
237 238 240 244 251 254 257 261 266 268 268 262 258 259 258 258 259 260 262 264 265 266 268 270 276 279 277 273 275 279 285 292 299 302 308 310 312 313 314 315 314 313 313 313 313
238 239 241 244 248 253 256 260 264 268 274 273 268 263 260 260 259 259 261 262 263 264 266 268 272 274 271 267 271 275 284 289 296 303 311 313 313 310 313 314 313 313 312 315 316
242 241 241 243 247 250 254 258 263 267 272 277 276 270 266 259 257 257 257 259 261 261 263 266 269 268 264 263 267 275 279 285 294 304 311 312 311 312 313 313 313 313 315 316 315
243 242 244 244 246 251 252 256 261 265 269 273 276 270 267 261 256 255 254 255 255 257 260 263 264 262 258 260 267 271 275 284 293 303 311 312 311 313 316 313 313 312 315 315 315
243 245 246 248 246 249 250 255 261 263 265 273 272 274 265 257 255 252 250 251 254 255 257 260 260 257 257 262 266 269 277 283 292 300 305 311 312 318 315 313 312 313 315 315 317
240 243 246 246 247 247 250 253 259 259 258 266 272 270 265 260 254 253 249 251 252 253 255 257 254 253 254 258 264 271 278 284 290 296 303 307 310 318 314 312 312 313 314 315 318
239 240 243 246 246 246 247 252 255 253 257 261 267 268 266 264 259 253 249 249 252 253 253 250 248 249 253 258 263 271 279 287 292 295 301 303 310 316 314 312 312 312 314 315 319
236 241 242 243 245 246 243 248 252 254 250 258 265 265 262 259 259 254 250 249 249 248 244 244 247 249 251 257 266 273 280 286 290 297 299 300 308 316 312 310 311 311 313 316 322
235 236 239 241 244 242 246 249 251 256 249 252 256 262 261 261 258 254 253 249 244 243 244 248 250 252 257 262 267 273 280 282 289 294 295 300 306 311 312 309 310 311 313 318 324
234 235 237 238 240 242 244 248 251 250 246 244 249 257 259 259 262 261 258 254 248 246 247 252 257 260 262 264 269 273 277 285 292 292 295 301 305 312 310 309 309 310 314 319 324
231 231 234 236 238 240 244 247 249 251 245 244 244 253 257 256 257 256 255 254 251 248 250 254 258 262 264 267 268 271 277 284 287 290 295 300 309 313 308 309 308 310 314 320 324
229 231 231 233 237 243 246 247 248 249 244 243 248 249 255 255 256 261 258 252 253 252 250 250 258 261 264 267 269 272 279 283 286 291 295 301 309 308 304 306 306 310 314 320 325
231 230 231 233 238 244 245 245 247 247 245 246 246 246 252 254 252 259 266 259 258 255 250 246 250 259 261 266 271 272 276 280 287 293 300 301 312 304 303 304 306 310 314 320 323
230 230 232 235 239 242 244 245 248 249 247 246 246 245 249 253 256 257 259 264 262 259 255 255 254 255 265 268 270 272 274 281 288 295 299 307 303 302 300 301 306 309 314 317 320
234 233 235 239 240 244 247 249 249 249 247 245 247 245 250 253 253 252 257 259 260 260 260 263 265 259 257 262 270 275 279 285 292 294 299 303 299 296 296 302 305 308 311 315 320
234 237 234 237 240 244 246 249 250 251 248 251 251 250 251 252 254 252 253 254 255 256 256 260 265 264 259 265 272 274 277 287 295 295 296 297 298 293 293 302 302 305 310 314 318
234 238 236 237 238 241 243 248 251 248 249 247 247 248 249 253 250 247 247 248 252 257 256 260 264 267 267 270 272 274 287 290 291 293 293 295 295 295 292 298 300 305 309 313 317
Height
5826 5828 5830 5832 5833 5835 5836 5837 5840 5840 5841 5841 5841 5841 5842 5844 5843 5844 5846 5846 5847 5848 5848 5848 5846 5845 5844 5842 5841 5839 5837 5834 5832 5831 5829 5826 5824 5821 5820 5818 5816 5813 5811 5808 5805
5823 5825 5827 5828 5830 5832 5833 5834 5836 5837 5837 5837 5837 5839 5840 5841 5841 5841 5844 5844 5844 5845 5846 5846 5845 5842 5842 5841 5839 5837 5835 5832 5830 5828 5826 5824 5822 5820 5818 5815 5813 5811 5809 5806 5802
5819 5821 5824 5826 5828 5829 5830 5831 5832 5834 5834 5835 5834 5835 5836 5838 5839 5839 5840 5841 5841 5842 5843 5843 5842 5841 5840 5838 5837 5835 5833 5830 5828 5826 5824 5822 5819 5817 5815 5813 5810 5808 5806 5802 5799
5815 5818 5820 5822 5825 5826 5827 5829 5830 5830 5831 5830 5831 5832 5833 5835 5838 5836 5837 5838 5838 5839 5840 5839 5839 5838 5837 5836 5834 5832 5830 5827 5824 5822 5821 5819 5817 5814 5812 5810 5807 5804 5801 5798 5795
5810 5813 5815 5817 5820 5822 5824 5825 5826 5827 5827 5827 5828 5829 5830 5831 5832 5832 5833 5835 5835 5835 5835 5836 5836 5835 5833 5832 5831 5829 5827 5825 5822 5819 5817 5816 5814 5811 5808 5806 5803 5799 5796 5793 5789
5806 5808 5810 5812 5815 5817 5819 5821 5822 5823 5823 5824 5825 5826 5827 5827 5827 5828 5829 5830 5830 5832 5830 5831 5831 5830 5829 5828 5827 5825 5823 5821 5819 5816 5814 5813 5811 5808 5805 5802 5799 5796 5792 5789 5784
5800 5803 5805 5808 5810 5812 5814 5816 5818 5817 5818 5820 5821 5821 5822 5824 5823 5823 5825 5825 5826 5827 5827 5826 5826 5827 5825 5824 5822 5821 5820 5817 5815 5813 5812 5810 5808 5805 5801 5798 5794 5791 5787 5783 5778
5795 5798 5801 5803 5805 5807 5809 5810 5812 5812 5813 5815 5816 5817 5817 5818 5818 5819 5820 5820 5821 5821 5822 5821 5821 5821 5820 5819 5818 5817 5815 5814 5811 5809 5808 5807 5804 5802 5798 5793 5789 5786 5782 5776 5771
5788 5791 5795 5798 5800 5802 5803 5805 5805 5806 5808 5809 5810 5811 5813 5813 5813 5814 5815 5815 5816 5816 5816 5816 5816 5816 5815 5814 5813 5812 5811 5810 5807 5805 5803 5802 5799 5797 5793 5789 5784 5780 5775 5770 5765
5780 5784 5788 5791 5794 5796 5797 5799 5799 5800 5802 5802 5804 5806 5807 5807 5808 5809 5809 5810 5811 5810 5811 5811 5810 5810 5810 5810 5809 5808 5807 5805 5802 5801 5798 5796 5795 5792 5788 5783 5778 5774 5769 5763 5759
5772 5775 5779 5783 5785 5788 5791 5792 5794 5795 5795 5795 5796 5797 5799 5801 5802 5802 5803 5804 5805 5805 5806 5805 5806 5805 5805 5804 5804 5803 5801 5800 5797 5795 5794 5791 5789 5786 5780 5775 5771 5767 5762 5757 5752
5762 5766 5771 5774 5777 5780 5783 5785 5786 5789 5787 5787 5788 5789 5791 5794 5795 5796 5798 5799 5799 5799 5799 5800 5799 5799 5799 5799 5799 5798 5796 5795 5792 5790 5788 5785 5783 5779 5774 5768 5764 5760 5755 5750 5744
5754 5757 5760 5764 5768 5771 5775 5777 5778 5780 5779 5779 5779 5781 5784 5785 5786 5788 5790 5791 5792 5793 5793 5793 5794 5793 5793 5793 5793 5793 5791 5789 5787 5784 5782 5779 5777 5773 5767 5761 5757 5752 5748 5742 5735
5743 5746 5751 5755 5760 5763 5766 5768 5770 5770 5769 5775 5773 5773 5775 5776 5778 5780 5781 5784 5784 5785 5786 5786 5786 5787 5787 5788 5788 5787 5786 5784 5781 5779 5777 5774 5770 5767 5761 5754 5750 5745 5741 5733 5726
5731 5736 5741 5745 5751 5754 5757 5759 5761 5762 5758 5767 5769 5766 5767 5768 5770 5771 5772 5774 5776 5777 5779 5781 5780 5781 5782 5783 5783 5782 5780 5778 5776 5773 5770 5768 5763 5760 5753 5748 5743 5737 5732 5725 5718
5719 5724 5730 5734 5740 5744 5747 5748 5751 5751 5749 5759 5761 5761 5761 5761 5760 5763 5764 5766 5768 5770 5771 5772 5773 5775 5775 5775 5776 5776 5774 5771 5768 5766 5763 5760 5757 5753 5746 5740 5734 5729 5723 5716 5711
5706 5712 5718 5724 5730 5733 5735 5739 5739 5732 5750 5752 5754 5754 5754 5754 5755 5754 5757 5758 5760 5762 5764 5765 5766 5768 5769 5769 5768 5768 5767 5765 5762 5759 5757 5752 5748 5745 5738 5732 5727 5721 5715 5709 5703
5693 5700 5706 5712 5717 5721 5723 5726 5719 5724 5741 5744 5746 5746 5746 5747 5749 5749 5750 5752 5753 5755 5756 5757 5760 5760 5761 5761 5761 5761 5761 5759 5753 5751 5748 5743 5741 5738 5731 5724 5719 5713 5707 5701 5694
5678 5685 5693 5700 5704 5708 5711 5706 5708 5719 5732 5738 5737 5737 5739 5741 5743 5742 5743 5745 5746 5748 5750 5751 5752 5753 5753 5753 5753 5753 5753 5751 5747 5743 5739 5736 5733 5730 5722 5715 5710 5706 5698 5692 5685
5667 5671 5679 5684 5690 5693 5693 5694 5700 5706 5720 5727 5728 5726 5731 5734 5736 5737 5737 5740 5741 5742 5743 5744 5744 5745 5745 5745 5746 5745 5745 5743 5740 5735 5730 5727 5724 5722 5714 5707 5702 5697 5690 5684 5676
5650 5654 5662 5669 5674 5675 5675 5682 5689 5696 5710 5716 5717 5718 5722 5726 5726 5728 5729 5733 5733 5735 5735 5737 5737 5738 5737 5739 5737 5737 5737 5735 5731 5727 5723 5719 5717 5714 5704 5699 5694 5689 5682 5676 5668
5631 5637 5643 5651 5659 5662 5665 5672 5681 5686 5698 5704 5708 5711 5712 5716 5718 5719 5722 5723 5725 5726 5727 5728 5727 5727 5728 5728 5727 5727 5728 5726 5721 5718 5713 5710 5710 5704 5695 5690 5687 5681 5674 5668 5660
5615 5619 5626 5635 5641 5647 5654 5661 5669 5675 5686 5692 5697 5700 5703 5706 5707 5711 5713 5714 5714 5715 5715 5719 5716 5716 5717 5719 5719 5717 5718 5715 5711 5708 5705 5701 5701 5694 5686 5682 5678 5672 5666 5660 5653
5594 5595 5608 5617 5628 5633 5639 5647 5657 5667 5673 5678 5684 5689 5692 5696 5700 5699 5703 5705 5705 5705 5705 5706 5706 5708 5710 5707 5708 5708 5706 5704 5701 5697 5696 5694 5688 5685 5678 5673 5670 5664 5658 5652 5645
5569 5573 5597 5604 5613 5620 5629 5640 5649 5650 5657 5666 5671 5677 5684 5686 5688 5688 5693 5696 5696 5696 5697 5695 5696 5697 5697 5698 5698 5696 5693 5694 5692 5688 5685 5685 5678 5676 5667 5664 5660 5656 5651 5645 5637
5549 5563 5579 5593 5600 5607 5616 5626 5632 5637 5646 5656 5662 5669 5671 5673 5678 5679 5681 5683 5685 5686 5686 5686 5686 5688 5687 5689 5688 5682 5681 5685 5683 5677 5676 5672 5670 5664 5658 5655 5651 5648 5643 5636 5629
5529 5552 5562 5572 5584 5590 5598 5610 5620 5630 5635 5644 5652 5653 5657 5662 5665 5666 5668 5670 5674 5675 5675 5677 5678 5679 5677 5678 5675 5668 5677 5676 5672 5668 5665 5660 5661 5655 5650 5647 5644 5640 5635 5628 5622